• In Sweden
  • List of Countries
  • For 7 days
  • Water Temperature
  • Satellite Maps
  • Weather Map
  • Weather Widgets
  • user-avatar
    Login

    Hourly Weather Zhuravlevka

    Today, 22 July, Sunday

    Time Temperature Precipitation Wind Pressure Humidity
    00:00 +19°C° 0 mm 3 mps 734 mmHg 95%
    01:00 +19°C° 0 mm 4 mps 734 mmHg 96%
    02:00 +18°C° 0 mm 4 mps 734 mmHg 97%
    03:00 +18°C° 0 mm 3 mps 734 mmHg 98%
    04:00 +19°C° 0.1 mm 3 mps 734 mmHg 98%
    05:00 +19°C° 0.1 mm 4 mps 734 mmHg 97%
    06:00 +19°C° 0.1 mm 4 mps 735 mmHg 97%
    07:00 +19°C° 0 mm 4 mps 735 mmHg 96%
    08:00 +19°C° 0 mm 4 mps 735 mmHg 95%
    09:00 +19°C° 0 mm 4 mps 735 mmHg 94%
    10:00 +20°C° 0 mm 5 mps 735 mmHg 93%
    11:00 +20°C° 0 mm 5 mps 735 mmHg 92%
    12:00 +20°C° 0 mm 5 mps 735 mmHg 90%
    13:00 +20°C° 0 mm 5 mps 735 mmHg 89%
    14:00 +21°C° 0 mm 5 mps 735 mmHg 88%
    15:00 +21°C° 0 mm 5 mps 735 mmHg 86%
    16:00 +21°C° 0 mm 5 mps 735 mmHg 86%
    17:00 +21°C° 0 mm 5 mps 735 mmHg 86%
    18:00 +21°C° 0 mm 5 mps 735 mmHg 86%
    19:00 +20°C° 0 mm 5 mps 735 mmHg 88%
    20:00 +20°C° 0 mm 5 mps 735 mmHg 89%
    21:00 +19°C° 0 mm 4 mps 735 mmHg 90%
    22:00 +19°C° 0 mm 5 mps 735 mmHg 91%
    23:00 +19°C° 0 mm 5 mps 735 mmHg 92%

    Tomorrow, 23 July, Monday

    Time Temperature Precipitation Wind Pressure Humidity
    00:00 +17°C° 0 mm 5 mps 735 mmHg 93%
    01:00 +17°C° 0 mm 5 mps 735 mmHg 93%
    02:00 +17°C° 0 mm 5 mps 735 mmHg 93%
    03:00 +17°C° 0 mm 5 mps 735 mmHg 93%
    04:00 +17°C° 0.1 mm 5 mps 735 mmHg 93%
    05:00 +17°C° 0.1 mm 5 mps 735 mmHg 93%
    06:00 +17°C° 0.1 mm 5 mps 735 mmHg 94%
    07:00 +16°C° 0.1 mm 5 mps 735 mmHg 93%
    08:00 +16°C° 0.1 mm 5 mps 735 mmHg 93%
    09:00 +16°C° 0.1 mm 5 mps 735 mmHg 93%
    10:00 +16°C° 0.1 mm 5 mps 736 mmHg 92%
    11:00 +16°C° 0.1 mm 5 mps 736 mmHg 91%
    12:00 +17°C° 0.1 mm 5 mps 736 mmHg 90%
    13:00 +17°C° 0.1 mm 5 mps 736 mmHg 89%
    14:00 +17°C° 0.1 mm 5 mps 736 mmHg 88%
    15:00 +19°C° 0.1 mm 5 mps 736 mmHg 87%
    16:00 +19°C° 0 mm 5 mps 736 mmHg 87%
    17:00 +19°C° 0 mm 5 mps 736 mmHg 87%
    18:00 +19°C° 0 mm 5 mps 736 mmHg 87%
    19:00 +19°C° 0 mm 5 mps 736 mmHg 89%
    20:00 +19°C° 0 mm 5 mps 736 mmHg 90%
    21:00 +17°C° 0 mm 5 mps 736 mmHg 92%
    22:00 +17°C° 0.2 mm 5 mps 736 mmHg 93%
    23:00 +17°C° 0.2 mm 5 mps 736 mmHg 94%

    Day after tomorrow, 24 July, Tuesday

    Time Temperature Precipitation Wind Pressure Humidity
    00:00 +17°C° 0.2 mm 5 mps 736 mmHg 95%
    01:00 +17°C° 0.1 mm 5 mps 736 mmHg 95%
    02:00 +19°C° 0.1 mm 4 mps 736 mmHg 96%
    03:00 +19°C° 0.1 mm 4 mps 736 mmHg 96%
    04:00 +19°C° 0 mm 4 mps 736 mmHg 96%
    05:00 +19°C° 0 mm 4 mps 736 mmHg 96%
    06:00 +19°C° 0 mm 4 mps 736 mmHg 96%
    07:00 +19°C° 0 mm 4 mps 737 mmHg 94%
    08:00 +20°C° 0 mm 4 mps 737 mmHg 93%
    09:00 +21°C° 0 mm 4 mps 737 mmHg 91%
    10:00 +22°C° 0.2 mm 4 mps 737 mmHg 88%
    11:00 +23°C° 0.2 mm 4 mps 738 mmHg 84%
    12:00 +25°C° 0.2 mm 4 mps 738 mmHg 81%
    13:00 +25°C° 0.3 mm 4 mps 738 mmHg 79%
    14:00 +26°C° 0.3 mm 4 mps 738 mmHg 77%
    15:00 +27°C° 0.3 mm 4 mps 738 mmHg 75%
    16:00 +26°C° 0.6 mm 4 mps 738 mmHg 79%
    17:00 +25°C° 0.6 mm 4 mps 738 mmHg 83%
    18:00 +24°C° 0.6 mm 3 mps 739 mmHg 87%
    19:00 +22°C° 0.5 mm 3 mps 739 mmHg 90%
    20:00 +21°C° 0.5 mm 3 mps 739 mmHg 92%
    21:00 +20°C° 0.5 mm 3 mps 739 mmHg 94%
    22:00 +20°C° 0.1 mm 3 mps 739 mmHg 95%
    23:00 +19°C° 0.1 mm 3 mps 740 mmHg 95%

    25 July, Wednesday

    Time Temperature Precipitation Wind Pressure Humidity
    00:00 +19°C° 0.1 mm 3 mps 740 mmHg 96%
    01:00 +18°C° 0 mm 3 mps 740 mmHg 95%
    02:00 +18°C° 0 mm 3 mps 740 mmHg 95%
    03:00 +18°C° 0 mm 3 mps 740 mmHg 95%
    04:00 +18°C° 0 mm 3 mps 740 mmHg 93%
    05:00 +18°C° 0 mm 4 mps 740 mmHg 92%
    06:00 +18°C° 0 mm 4 mps 740 mmHg 90%
    07:00 +19°C° 0 mm 5 mps 740 mmHg 86%
    08:00 +19°C° 0 mm 5 mps 740 mmHg 82%
    09:00 +20°C° 0 mm 6 mps 740 mmHg 77%
    10:00 +21°C° 0 mm 6 mps 740 mmHg 73%
    11:00 +22°C° 0 mm 6 mps 741 mmHg 69%
    12:00 +23°C° 0 mm 6 mps 741 mmHg 65%
    13:00 +23°C° 0 mm 6 mps 741 mmHg 63%
    14:00 +24°C° 0 mm 6 mps 741 mmHg 61%
    15:00 +24°C° 0 mm 6 mps 741 mmHg 59%
    16:00 +24°C° 0 mm 6 mps 741 mmHg 63%
    17:00 +25°C° 0 mm 5 mps 741 mmHg 66%
    18:00 +23°C° 0 mm 5 mps 741 mmHg 69%
    19:00 +23°C° 0 mm 5 mps 741 mmHg 70%
    20:00 +22°C° 0 mm 4 mps 742 mmHg 71%
    21:00 +21°C° 0 mm 4 mps 742 mmHg 71%
    22:00 +20°C° 0 mm 4 mps 742 mmHg 73%
    23:00 +20°C° 0 mm 4 mps 742 mmHg 74%

    26 July, Thursday

    Time Temperature Precipitation Wind Pressure Humidity
    00:00 +20°C° 0 mm 4 mps 742 mmHg 76%
    01:00 +19°C° 0 mm 4 mps 742 mmHg 79%
    02:00 +18°C° 0 mm 3 mps 742 mmHg 83%
    03:00 +18°C° 0 mm 3 mps 742 mmHg 87%
    04:00 +18°C° 0 mm 4 mps 743 mmHg 87%
    05:00 +18°C° 0 mm 4 mps 743 mmHg 87%
    06:00 +18°C° 0 mm 4 mps 743 mmHg 87%
    07:00 +19°C° 0 mm 4 mps 743 mmHg 83%
    08:00 +21°C° 0 mm 5 mps 743 mmHg 79%
    09:00 +23°C° 0 mm 5 mps 743 mmHg 74%
    10:00 +23°C° 0 mm 5 mps 743 mmHg 73%
    11:00 +25°C° 0 mm 5 mps 743 mmHg 72%
    12:00 +26°C° 0 mm 6 mps 744 mmHg 70%
    13:00 +26°C° 0 mm 5 mps 744 mmHg 70%
    14:00 +26°C° 0 mm 5 mps 744 mmHg 70%
    15:00 +26°C° 0 mm 5 mps 744 mmHg 71%
    16:00 +27°C° 0 mm 4 mps 744 mmHg 72%
    17:00 +27°C° 0 mm 4 mps 744 mmHg 73%
    18:00 +27°C° 0 mm 3 mps 744 mmHg 73%
    19:00 +26°C° 0 mm 3 mps 744 mmHg 77%
    20:00 +24°C° 0 mm 3 mps 744 mmHg 81%
    21:00 +22°C° 0 mm 3 mps 744 mmHg 84%
    22:00 +22°C° 0.1 mm 3 mps 744 mmHg 84%
    23:00 +21°C° 0.1 mm 3 mps 744 mmHg 84%

    27 July, Friday

    Time Temperature Precipitation Wind Pressure Humidity
    00:00 +21°C° 0.1 mm 3 mps 745 mmHg 85%
    01:00 +21°C° 0.2 mm 3 mps 745 mmHg 87%
    02:00 +20°C° 0.2 mm 3 mps 745 mmHg 89%
    03:00 +20°C° 0.2 mm 3 mps 745 mmHg 90%
    04:00 +20°C° 0.2 mm 3 mps 745 mmHg 91%
    05:00 +20°C° 0.2 mm 3 mps 745 mmHg 91%
    06:00 +20°C° 0.2 mm 3 mps 746 mmHg 91%
    07:00 +21°C° 0 mm 3 mps 746 mmHg 87%
    08:00 +22°C° 0 mm 3 mps 746 mmHg 82%
    09:00 +25°C° 0 mm 4 mps 746 mmHg 77%
    10:00 +26°C° 0 mm 4 mps 746 mmHg 71%
    11:00 +27°C° 0 mm 4 mps 746 mmHg 64%
    12:00 +28°C° 0 mm 5 mps 746 mmHg 58%
    13:00 +29°C° 0 mm 5 mps 746 mmHg 57%
    14:00 +29°C° 0 mm 4 mps 746 mmHg 57%
    15:00 +29°C° 0 mm 4 mps 746 mmHg 56%
    16:00 +29°C° 0 mm 4 mps 746 mmHg 61%
    17:00 +28°C° 0 mm 3 mps 746 mmHg 65%
    18:00 +28°C° 0 mm 3 mps 746 mmHg 70%
    19:00 +26°C° 0 mm 2 mps 746 mmHg 72%
    20:00 +25°C° 0 mm 2 mps 746 mmHg 75%
    21:00 +23°C° 0 mm 2 mps 746 mmHg 78%
    22:00 +21°C° 0 mm 2 mps 746 mmHg 79%
    23:00 +21°C° 0 mm 2 mps 746 mmHg 80%
    Show more